Location: Tel Aviv
(32.0670°N, 34.7670°E)
Time: 01:10:05
(UTC+03:00)

Transit 2A - Visible Passes

Search period start: 29 May 2024 00:00
Search period end: 08 June 2024 00:00
Orbit: 594 x 958 km, 66.7° (Epoch: 28 May)

Date Brightness Start Highest point End Pass type
(mag) Time Alt. Az. Time Alt. Az. Time Alt. Az.
29 May 6.3 20:24:14 10° S 20:28:17 34° ESE 20:32:39 10° NE visible
29 May 8.3 22:08:04 10° W 22:11:28 20° NW 22:15:06 10° N visible
30 May 7.7 21:32:02 10° WSW 21:36:05 31° WNW 21:40:29 10° N visible
31 May 9.9 04:41:32 10° NNE 04:43:11 11° NE 04:44:52 10° ENE visible
31 May 6.7 20:56:23 10° SW 21:00:46 49° WNW 21:05:36 10° NNE visible
01 Jun 5.8 20:21:03 10° SSW 20:25:33 83° WNW 20:30:32 10° NNE visible
02 Jun 9.1 21:31:40 10° W 21:34:02 14° NW 21:36:31 10° NNW visible
03 Jun 9.1 04:36:32 10° N 04:41:19 23° NE 04:46:14 10° ESE visible
03 Jun 8.7 20:55:03 10° WSW 20:58:33 21° NW 21:02:19 10° N visible
04 Jun 9.5 04:02:10 10° NNE 04:05:52 16° NE 04:09:38 10° E visible
04 Jun 7.9 20:19:03 10° WSW 20:23:10 32° WNW 20:27:40 10° N visible
05 Jun 9.8 03:28:46 10° NNE 03:30:19 11° NE 03:31:53 10° ENE visible
06 Jun 7.6 04:33:14 10° NNW 04:39:10 48° ENE 04:45:16 10° SE visible
07 Jun 8.3 03:58:22 10° N 04:03:52 33° ENE 04:09:28 10° ESE visible
07 Jun 9.3 20:18:33 10° W 20:21:06 14° NW 20:23:47 10° NNW visible
